| time (UTC) | temp C | wind direction | speed KPH | gust KPH | rain 1hr cm | rain 24hr cm | rain mn cm | humidity % | barometer mb |
| 20260902101514 | 20 | 254 | 11.3 | 33.8 | 0.00 | 0.00 | 0.00 | 37 | 1019.0 |
| 20260902100013 | 20 | 298 | 9.7 | 22.5 | 0.00 | 0.00 | 0.00 | 39 | 1019.5 |
| 20260902094509 | 19 | 330 | 6.4 | 27.4 | 0.00 | 0.00 | 0.00 | 41 | 1019.4 |
| 20260902093004 | 16 | 267 | 3.2 | 14.5 | 0.00 | 0.00 | 0.00 | 51 | 1019.4 |
| 20260902091504 | 15 | 105 | 0.0 | 1.6 | 0.00 | 0.00 | 0.00 | 73 | 1019.5 |
| 20260902090006 | 15 | 281 | 0.0 | 1.6 | 0.00 | 0.00 | 0.00 | 74 | 1019.7 |
| 20260902084602 | 15 | 281 | 0.0 | 0.0 | 0.00 | 0.00 | 0.00 | 73 | 1019.8 |
| 20260902083059 | 15 | 281 | 0.0 | 1.6 | 0.00 | 0.00 | 0.00 | 70 | 1019.7 |
| 20260902081557 | 15 | 281 | 0.0 | 1.6 | 0.00 | 0.00 | 0.00 | 72 | 1019.8 |
| 20260902080056 | 15 | 281 | 0.0 | 1.6 | 0.00 | 0.00 | 0.00 | 70 | 1019.9 |
| 20260902074555 | 15 | 281 | 0.0 | 1.6 | 0.00 | 0.00 | 0.00 | 71 | 1020.0 |
| 20260902073053 | 15 | 281 | 0.0 | 0.0 | 0.00 | 0.00 | 0.00 | 69 | 1020.1 |
| 20260902071553 | 15 | 281 | 0.0 | 0.0 | 0.00 | 0.00 | 0.00 | 67 | 1020.0 |
| 20260902070052 | 16 | 281 | 0.0 | 0.0 | 0.00 | 0.00 | 0.00 | 67 | 1020.1 |
| 20260902064601 | 16 | 281 | 0.0 | 1.6 | 0.00 | 0.00 | 0.00 | 69 | 1020.1 |
| 20260902063104 | 15 | 281 | 0.0 | 0.0 | 0.00 | 0.00 | 0.00 | 69 | 1020.2 |
| 20260902060044 | 16 | 281 | 0.0 | 1.6 | 0.00 | 0.00 | 0.00 | 68 | 1020.1 |
| 20260902054544 | 16 | 281 | 0.0 | 1.6 | 0.00 | 0.00 | 0.00 | 68 | 1020.1 |
| 20260902053044 | 16 | 273 | 0.0 | 0.0 | 0.00 | 0.00 | 0.00 | 67 | 1020.2 |
| 20260902051557 | 16 | 273 | 0.0 | 0.0 | 0.00 | 0.00 | 0.00 | 66 | 1020.2 |
| 20260902050043 | 17 | 273 | 0.0 | 0.0 | 0.00 | 0.00 | 0.00 | 65 | 1020.5 |
| 20260902044603 | 17 | 273 | 0.0 | 0.0 | 0.00 | 0.00 | 0.00 | 63 | 1020.8 |
| 20260902043047 | 17 | 273 | 0.0 | 0.0 | 0.00 | 0.00 | 0.00 | 62 | 1020.9 |
| 20260902041545 | 18 | 273 | 0.0 | 4.8 | 0.00 | 0.00 | 0.00 | 61 | 1021.0 |
| 20260902040042 | 18 | 131 | 0.0 | 4.8 | 0.00 | 0.00 | 0.00 | 60 | 1020.9 |
| 20260902034541 | 18 | 210 | 0.0 | 3.2 | 0.00 | 0.00 | 0.00 | 58 | 1021.1 |
| 20260902033040 | 19 | 219 | 0.0 | 4.8 | 0.00 | 0.00 | 0.00 | 58 | 1021.1 |
| 20260902031554 | 19 | 111 | 0.0 | 3.2 | 0.00 | 0.00 | 0.00 | 56 | 1021.1 |
| 20260902030040 | 19 | 85 | 1.6 | 8.0 | 0.00 | 0.00 | 0.00 | 55 | 1021.1 |
| 20260902024550 | 19 | 161 | 0.0 | 4.8 | 0.00 | 0.03 | 0.00 | 54 | 1020.7 |
| 20260902023041 | 19 | 146 | 0.0 | 3.2 | 0.00 | 0.03 | 0.00 | 54 | 1020.4 |
| 20260902021541 | 19 | 248 | 0.0 | 1.6 | 0.00 | 0.03 | 0.00 | 54 | 1019.9 |
| 20260902020042 | 20 | 248 | 0.0 | 4.8 | 0.00 | 0.03 | 0.00 | 52 | 1019.7 |
| 20260902014539 | 20 | 138 | 3.2 | 12.9 | 0.00 | 0.03 | 0.00 | 51 | 1019.4 |
| 20260902013037 | 21 | 109 | 4.8 | 20.9 | 0.00 | 0.03 | 0.00 | 50 | 1019.3 |
| 20260902011537 | 22 | 58 | 6.4 | 19.3 | 0.00 | 0.03 | 0.00 | 47 | 1019.3 |
| 20260902010040 | 22 | 132 | 11.3 | 20.9 | 0.00 | 0.03 | 0.00 | 44 | 1019.2 |
| 20260902004536 | 23 | 192 | 1.6 | 11.3 | 0.00 | 0.03 | 0.00 | 40 | 1019.2 |
| 20260902003036 | 24 | 121 | 4.8 | 12.9 | 0.00 | 0.03 | 0.00 | 38 | 1019.2 |
| 20260902001536 | 23 | 136 | 6.4 | 16.1 | 0.00 | 0.03 | 0.00 | 38 | 1019.3 |
| 20260902000034 | 24 | 120 | 3.2 | 11.3 | 0.00 | 0.03 | 0.00 | 36 | 1019.3 |
| 20260901234535 | 25 | 135 | 6.4 | 14.5 | 0.00 | 0.03 | 0.00 | 32 | 1019.2 |
| 20260901233035 | 25 | 76 | 3.2 | 11.3 | 0.00 | 0.03 | 0.00 | 28 | 1019.3 |
| 20260901231538 | 25 | 136 | 4.8 | 12.9 | 0.00 | 0.03 | 0.00 | 28 | 1019.1 |
| 20260901230033 | 25 | 105 | 1.6 | 8.0 | 0.00 | 0.03 | 0.00 | 28 | 1019.3 |
| 20260901224535 | 26 | 114 | 4.8 | 11.3 | 0.00 | 0.03 | 0.00 | 28 | 1019.3 |
| 20260901223031 | 26 | 111 | 6.4 | 12.9 | 0.00 | 0.03 | 0.00 | 29 | 1019.3 |
| 20260901221530 | 26 | 119 | 0.0 | 3.2 | 0.00 | 0.03 | 0.00 | 29 | 1019.6 |
| 20260901220026 | 26 | 102 | 0.0 | 6.4 | 0.00 | 0.03 | 0.00 | 32 | 1019.8 |
| 20260901214523 | 25 | 116 | 0.0 | 3.2 | 0.00 | 0.03 | 0.00 | 35 | 1020.0 |
| 20260901213028 | 25 | 119 | 0.0 | 3.2 | 0.00 | 0.03 | 0.00 | 34 | 1020.0 |
| 20260901211522 | 24 | 120 | 1.6 | 4.8 | 0.00 | 0.03 | 0.00 | 35 | 1020.3 |
| 20260901210020 | 25 | 126 | 3.2 | 12.9 | 0.00 | 0.03 | 0.00 | 35 | 1020.5 |
| 20260901204519 | 24 | 111 | 0.0 | 4.8 | 0.00 | 0.03 | 0.00 | 37 | 1020.6 |
| 20260901203018 | 23 | 137 | 1.6 | 9.7 | 0.00 | 0.03 | 0.00 | 38 | 1020.7 |
| 20260901201516 | 24 | 12 | 0.0 | 4.8 | 0.00 | 0.03 | 0.00 | 39 | 1020.8 |
| 20260901200018 | 24 | 225 | 3.2 | 9.7 | 0.00 | 0.03 | 0.00 | 39 | 1021.0 |
| 20260901194514 | 24 | 115 | 3.2 | 22.5 | 0.00 | 0.03 | 0.00 | 40 | 1021.1 |
| 20260901193014 | 25 | 126 | 4.8 | 14.5 | 0.00 | 0.03 | 0.00 | 37 | 1021.1 |
| 20260901191516 | 25 | 103 | 3.2 | 16.1 | 0.00 | 0.03 | 0.00 | 40 | 1021.2 |
| 20260901190013 | 24 | 115 | 6.4 | 14.5 | 0.00 | 0.03 | 0.00 | 42 | 1021.4 |
| 20260901184507 | 23 | 126 | 6.4 | 19.3 | 0.00 | 0.03 | 0.00 | 42 | 1021.6 |
| 20260901183017 | 23 | 140 | 6.4 | 12.9 | 0.00 | 0.03 | 0.00 | 41 | 1021.7 |
| 20260901181505 | 23 | 106 | 1.6 | 11.3 | 0.00 | 0.03 | 0.00 | 43 | 1021.8 |
| 20260901180006 | 23 | 120 | 4.8 | 12.9 | 0.00 | 0.03 | 0.00 | 43 | 1022.1 |
| 20260901174502 | 22 | 122 | 1.6 | 6.4 | 0.00 | 0.03 | 0.00 | 47 | 1022.3 |
| 20260901173138 | 21 | 129 | 0.0 | 8.0 | 0.00 | 0.03 | 0.00 | 52 | 1022.4 |
| 20260901171558 | 20 | 111 | 1.6 | 8.0 | 0.00 | 0.03 | 0.00 | 52 | 1022.8 |
| 20260901170055 | 19 | 126 | 3.2 | 9.7 | 0.00 | 0.03 | 0.00 | 60 | 1023.0 |
| 20260901164548 | 18 | 202 | 0.0 | 3.2 | 0.00 | 0.03 | 0.00 | 62 | 1022.9 |
| 20260901163103 | 16 | 121 | 0.0 | 4.8 | 0.00 | 0.03 | 0.00 | 72 | 1022.8 |
| 20260901161549 | 16 | 116 | 0.0 | 3.2 | 0.00 | 0.03 | 0.00 | 72 | 1022.5 |
| 20260901160040 | 16 | 271 | 0.0 | 0.0 | 0.00 | 0.03 | 0.00 | 77 | 1022.6 |
| 20260901154533 | 15 | 271 | 0.0 | 3.2 | 0.00 | 0.03 | 0.00 | 78 | 1022.4 |
| 20260901153031 | 15 | 260 | 0.0 | 1.6 | 0.00 | 0.03 | 0.00 | 80 | 1022.7 |
| 20260901151531 | 15 | 260 | 0.0 | 0.0 | 0.00 | 0.03 | 0.00 | 81 | 1022.7 |
| 20260901150032 | 15 | 260 | 0.0 | 1.6 | 0.00 | 0.03 | 0.00 | 79 | 1022.4 |
| 20260901144528 | 14 | 260 | 0.0 | 0.0 | 0.00 | 0.03 | 0.00 | 79 | 1022.5 |
| 20260901143029 | 14 | 260 | 0.0 | 1.6 | 0.00 | 0.03 | 0.00 | 80 | 1022.4 |
| 20260901141535 | 13 | 260 | 0.0 | 1.6 | 0.00 | 0.03 | 0.00 | 80 | 1022.3 |
| 20260901140027 | 13 | 260 | 0.0 | 1.6 | 0.00 | 0.03 | 0.00 | 81 | 1022.4 |
| 20260901134527 | 13 | 148 | 0.0 | 8.0 | 0.00 | 0.03 | 0.00 | 80 | 1022.4 |
| 20260901133026 | 13 | 349 | 0.0 | 3.2 | 0.00 | 0.03 | 0.00 | 79 | 1021.8 |
| 20260901131532 | 13 | 107 | 0.0 | 1.6 | 0.00 | 0.03 | 0.00 | 78 | 1021.7 |
| 20260901130025 | 14 | 126 | 0.0 | 3.2 | 0.00 | 0.03 | 0.00 | 74 | 1021.3 |
| 20260901124524 | 13 | 117 | 0.0 | 3.2 | 0.00 | 0.03 | 0.00 | 83 | 1021.1 |
| 20260901123031 | 12 | 117 | 0.0 | 0.0 | 0.00 | 0.03 | 0.00 | 84 | 1021.1 |
| 20260901121524 | 12 | 117 | 0.0 | 1.6 | 0.00 | 0.03 | 0.00 | 84 | 1020.9 |
| 20260901120022 | 13 | 120 | 0.0 | 1.6 | 0.00 | 0.03 | 0.00 | 84 | 1020.9 |
| 20260901114522 | 12 | 119 | 0.0 | 3.2 | 0.00 | 0.03 | 0.00 | 85 | 1020.8 |
| 20260901113022 | 12 | 119 | 0.0 | 1.6 | 0.00 | 0.03 | 0.00 | 85 | 1020.9 |
| 20260901111521 | 12 | 120 | 0.0 | 1.6 | 0.00 | 0.03 | 0.00 | 85 | 1020.9 |
| 20260901110019 | 13 | 120 | 0.0 | 0.0 | 0.00 | 0.03 | 0.00 | 84 | 1021.0 |
| 20260901104521 | 13 | 112 | 0.0 | 4.8 | 0.00 | 0.03 | 0.00 | 84 | 1021.3 |
| 20260901103018 | 13 | 203 | 0.0 | 1.6 | 0.00 | 0.03 | 0.00 | 85 | 1021.3 |